SCP
-0 -0 -0 -0 -0 -0 -0 -0 -0 -0 -0 -0 -0 -0 -0 -0 -0 -0 -0 0 0 -0 0 -0 -0 -0 0 -0 -0 0 -0 -0 0 0 0 -0 -0 -0 0 -0 0 0 0 0 0
-0 -0 -0 -0 -0 -0 -0 -0 -0 -0 -0 -0 -0 -0 -0 -0 -0 -0 0 -0 0 -0 0 0 -0 0 -0 -0 0 0 -0 0 0 0 0 0 -0 0 -0 -0 0 -0 -0 -0 -0
-0 -0 -0 -0 -0 -0 -0 -0 -0 -0 -0 -0 -0 -0 -0 -0 0 0 0 0 0 -0 0 0 -0 -0 0 0 -0 0 -0 -0 -0 -0 0 -0 -0 0 -0 0 -0 -0 -0 -0 -0
-0 -0 -0 -0 -0 -0 -0 -0 -0 -0 -0 -0 -0 0 0 0 0 0 0 -0 -0 -0 -0 -0 -0 -0 -0 -0 -0 0 -0 -0 -0 0 -0 0 0 0 -0 0 -0 -0 -0 -0 -0
-0 -0 -0 -0 -0 -0 -0 -0 -0 -0 -0 -0 -0 0 0 0 0 0 0 0 0 -0 -0 -0 -0 -0 -0 0 0 -0 0 0 0 -0 0 -0 0 0 0 -0 -0 -0 -0 -0 -0
-0 -0 -0 -0 -0 -0 -0 -0 -0 -0 -0 -0 -0 -0 0 0 0 0 0 0 -0 -0 -0 -0 -0 0 0 0 0 0 -0 0 0 0 0 -0 -0 0 -0 -0 -0 -0 -0 -0 -0
-0 -0 -0 -0 -0 -0 -0 -0 -0 -0 -0 0 0 0 0 0 0 0 0 0 0 0 0 -0 0 0 0 0 0 -0 0 0 -0 -0 -0 -0 0 0 0 0 -0 -0 -0 -0 -0
-0 -0 -0 -0 -0 -0 -0 -0 -0 -0 0 0 0 -0 0 -0 -0 0 0 0 0 0 0 0 0 0 0 0 -0 0 0 0 -0 -0 -0 -0 0 0 0 -0 -0 -0 -0 -0 -0
-0 -0 -0 -0 -0 -0 -0 -0 -0 -0 0 0 0 0 0 -0 0 -0 0 0 0 0 0 0 0 0 0 0 0 0 0 0 0 -0 -0 -0 0 -0 -0 -0 -0 -0 0 -0 -0
0 -0 -0 -0 -0 -0 -0 -0 0 0 0 -0 -0 0 0 0 0 -0 0 0 0 0 0 0 0 0 0 0 0 0 0 0 0 0 -0 -0 -0 -0 -0 -0 -0 -0 0 -0 -0
0 0 0 0 0 0 0 0 0 0 0 0 0 0 -0 -0 -0 -0 0 0 0 0 0 0 0 -0 -0 -0 -0 -0 -0 0 0 0 0 -0 0 0 -0 -0 -0 -0 -0 -0 -0
0 0 0 0 0 0 0 0 0 0 0 0 0 0 -0 -0 -0 -0 0 0 0 0 0 0 0 -0 -0 -0 -0 -0 0 0 0 0 0 0 -0 -0 -0 -0 -0 -0 -0 -0 0
0 0 0 0 0 0 0 0 0 0 0 0 0 0 -0 0 0 -0 0 0 0 0 0 0 0 0 -0 -0 -0 0 0 0 -0 0 0 0 0 0 -0 0 -0 -0 -0 -0 -0
0 0 0 0 0 0 0 0 0 0 0 0 0 -0 0 0 -0 0 0 0 0 -0 0 0 0 0 0 0 0 0 0 0 0 0 0 0 0 0 0 -0 -0 -0 -0 -0 0
0 0 0 0 0 0 0 0 0 0 0 0 0 0 0 0 -0 -0 0 0 0 0 0 0 0 0 0 0 0 0 0 0 0 0 0 0 0 0 0 0 -0 -0 -0 -0 -0
0 0 -0 0 0 0 0 0 0 0 0 0 -0 0 0 -0 -0 -0 0 0 -0 0 0 0 0 0 0 0 0 0 0 0 0 0 0 0 -0 -0 0 -0 -0 -0 -0 -0 -0
0 0 0 0 0 0 0 0 0 0 0 0 0 0 0 -0 -0 -0 0 0 0 0 -0 0 0 0 0 0 0 0 0 0 0 0 0 0 0 0 0 0 -0 -0 -0 -0 -0
0 0 0 0 0 0 0 0 0 0 0 0 0 0 0 -0 -0 0 0 0 -0 0 0 0 0 -0 0 0 0 0 0 0 0 0 0 0 -0 0 0 0 0 0 0 0 -0
0 0 0 0 0 0 0 0 0 0 0 0 0 0 -0 -0 -0 0 0 -0 0 0 0 0 0 0 0 0 0 0 0 0 0 0 0 0 0 0 0 0 0 0 0 0 0
0 0 0 0 0 0 0 0 0 0 0 0 0 0 0 0 0 0 0 -0 0 0 0 0 0 0 0 0 0 0 0 0 0 0 -0 0 0 0 0 0 0 0 0 0 0
0 0 0 -0 0 0 0 0 0 0 0 0 0 0 0 0 0 0 0 0 0 0 0 0 0 0 0 -0 -0 0 0 0 0 0 0 0 0 0 0 0 0 0 0 0 0
0 0 0 -0 0 0 0 0 0 0 0 -0 -0 0 0 0 0 0 0 0 0 0 0 0 0 0 0 0 0 0 0 0 0 0 0 0 0 0 0 0 0 0 0 0 0
0 0 0 0 0 0 0 0 0 0 0 0 0 -0 0 0 0 0 0 0 0 0 0 0 0 0 0 0 0 0 0 0 0 0 0 0 0 0 0 0 0 0 0 0 0
0 0 0 0 0 0 0 0 0 0 0 0 0 0 0 0 0 0 0 0 0 0 0 0 0 0 0 0 0 0 0 0 0 0 0 0 0 0 0 0 0 0 0 0 0
0 0 0 0 0 0 0 0 0 0 0 0 0 0 0 0 0 0 0 0 0 0 0 0 0 0 0 0 0 0 0 0 0 0 0 0 0 0 0 0 0 0 0 0 0
0 0 0 0 0 0 0 0 0 0 0 0 0 0 0 0 0 0 0 0 0 0 0 0 0 0 0 0 0 0 0 0 0 0 0 0 0 0 0 0 0 0 0 0 0
0 0 0 0 0 0 0 0 0 0 -0 0 0 0 0 0 0 0 0 0 0 0 0 0 0 0 0 0 0 0 0 0 0 0 0 0 0 0 0 0 0 0 0 0 0
Wind_Speed_500mb
23 23 22 22 20 19 17 17 17 17 18 18 17 16 15 14 18 21 22 13 20 15 4 14 16 14 9 11 12 13 8 13 14 19 3 30 22 34 13 41 31 13 45 65 61
25 24 24 23 22 20 18 18 19 18 19 20 21 19 17 15 16 22 11 18 19 18 12 11 20 14 9 15 8 8 5 17 14 14 7 1 10 2 17 36 15 35 46 63 67
25 24 24 24 24 23 20 19 19 19 21 22 23 21 18 15 6 4 5 21 20 19 13 14 17 7 8 13 12 9 9 8 12 13 0 4 13 10 45 11 49 67 69 69 70
28 27 27 27 26 25 23 21 19 19 21 23 22 21 16 7 7 7 8 12 19 18 15 13 10 8 8 11 16 1 21 12 10 25 10 6 5 5 30 21 55 60 64 71 72
31 31 30 29 29 27 25 24 22 21 22 23 20 17 11 5 2 1 5 15 21 21 18 18 10 6 3 9 14 7 6 19 9 30 30 30 6 4 8 39 53 63 68 71 69
34 33 33 32 31 29 25 24 21 22 22 22 18 11 6 4 4 7 5 12 22 22 21 22 4 10 15 10 17 13 18 13 13 22 23 17 6 5 10 38 59 69 74 70 66
38 37 36 36 35 32 28 25 22 22 21 17 12 5 10 6 6 3 7 8 14 18 18 12 8 12 12 4 20 35 9 9 7 1 11 24 3 8 21 48 54 65 65 65 69
40 40 40 39 38 35 28 24 22 23 14 8 7 6 8 8 11 9 7 8 14 13 10 4 12 19 8 2 15 6 8 4 7 5 9 17 10 10 27 36 45 51 55 57 64
39 39 39 40 39 34 26 22 21 16 9 8 7 7 9 13 23 9 14 7 3 10 13 10 10 7 1 10 8 4 5 8 6 24 5 12 10 17 34 32 33 47 48 47 63
42 41 40 38 39 32 22 19 20 11 9 12 14 12 6 5 13 22 20 11 13 12 11 10 3 5 6 7 11 12 8 6 10 11 8 13 17 9 37 38 40 41 41 47 64
45 44 42 39 37 29 9 11 17 5 23 29 42 35 46 20 9 22 20 22 18 5 8 2 6 13 21 12 6 4 6 13 14 15 12 22 12 15 32 35 35 33 32 51 63
47 47 45 41 40 24 8 9 14 23 25 38 41 47 44 35 10 25 27 16 10 8 8 11 11 21 5 8 7 10 11 9 4 16 10 8 25 5 21 28 40 43 40 44 61
47 49 46 40 35 14 11 6 19 34 9 25 19 27 26 27 25 33 35 28 7 6 8 11 13 8 9 9 8 9 9 13 14 9 4 9 13 12 10 26 24 37 42 42 59
47 50 50 45 20 19 12 4 22 12 8 13 8 12 26 14 9 47 44 29 4 17 11 11 12 10 11 14 10 15 16 23 14 12 9 12 9 12 11 16 18 43 54 54 44
50 51 52 45 39 28 14 16 16 2 7 5 9 9 21 23 6 23 49 38 17 13 9 14 11 8 12 23 16 19 12 22 17 14 6 1 5 13 5 12 24 42 51 67 59
50 55 52 47 40 19 9 8 2 10 12 7 17 12 13 12 7 9 20 21 8 9 5 15 14 9 17 10 16 12 13 18 11 7 4 11 13 11 8 12 10 36 51 64 66
54 55 53 48 41 21 14 2 9 7 10 5 10 8 14 13 5 11 13 12 10 8 6 7 9 8 8 8 8 14 14 5 4 4 13 5 8 16 11 12 15 25 55 61 65
58 61 51 44 34 22 13 8 7 7 12 11 8 6 16 14 12 15 11 8 8 9 4 9 11 12 5 10 15 4 15 11 9 7 9 3 5 10 12 22 18 6 29 47 54
58 59 35 29 16 31 23 6 16 12 8 14 15 9 6 4 8 7 16 12 15 20 15 11 11 8 11 10 16 7 4 7 15 2 5 3 6 12 15 17 23 12 16 35 53
59 55 28 15 23 39 8 9 8 3 10 8 5 8 4 3 2 12 16 11 13 23 13 10 5 6 3 11 9 13 15 8 7 5 6 6 3 8 6 10 14 17 8 20 40
44 21 22 22 26 15 8 12 9 12 22 12 5 8 6 3 10 12 18 16 13 10 17 11 8 10 6 5 11 4 3 13 10 9 10 2 10 11 12 7 2 14 19 14 28
20 6 11 18 8 3 6 9 9 12 39 12 9 18 12 5 11 12 22 14 28 27 20 10 11 7 7 3 6 5 6 8 10 11 3 6 10 8 13 13 14 4 8 17 10
30 10 7 18 0 5 11 9 5 7 7 7 8 8 10 10 7 11 11 3 32 12 18 15 5 6 12 13 9 11 2 9 9 7 10 12 10 3 10 9 17 18 9 11 14
13 7 7 5 14 3 6 8 8 19 13 18 14 3 10 9 19 12 6 5 8 13 24 18 7 13 12 12 7 1 5 6 10 6 9 10 8 7 4 8 7 17 16 14 13
9 3 5 6 4 5 5 5 5 9 13 23 9 12 11 10 7 14 4 7 14 10 8 9 8 9 5 5 4 5 5 3 10 10 10 8 16 10 15 14 11 11 16 21 16
10 9 14 14 16 8 5 3 6 6 4 8 4 30 19 12 10 12 8 4 10 5 8 8 2 4 2 2 4 3 3 14 8 9 10 10 1 8 11 14 16 18 17 20 23
7 8 9 11 8 4 5 4 12 15 15 20 11 18 24 12 39 54 59 33 31 21 9 10 13 7 3 5 7 5 6 8 7 4 10 7 13 11 13 22 24 19 12 11 15
Wind_Direction_500mb
5 2 0 358 357 356 356 355 353 351 349 345 337 325 310 292 275 265 255 223 195 181 160 155 156 143 132 144 126 112 87 185 198 220 67 354 128 166 162 137 151 208 168 166 157
1 359 357 353 351 348 345 344 344 344 346 344 339 331 321 311 284 270 236 205 187 180 172 163 145 152 182 160 146 95 144 202 204 163 129 272 16 95 127 150 104 123 157 164 167
358 355 352 349 346 342 338 335 335 335 338 339 335 331 326 324 325 69 202 196 187 199 189 177 170 182 208 174 176 145 195 189 228 188 154 339 33 331 153 179 159 155 167 172 177
355 352 349 346 344 340 334 327 325 327 329 332 330 329 326 320 147 100 73 168 194 203 196 179 196 171 209 183 191 209 239 234 229 199 176 147 5 335 175 178 174 169 165 175 183
355 350 346 343 342 339 333 324 320 323 326 329 327 326 327 269 220 42 322 188 197 205 191 177 179 197 222 190 163 221 163 184 263 170 166 161 227 181 97 156 173 169 174 182 186
356 349 344 341 339 337 333 322 315 318 324 324 321 316 285 280 121 358 287 196 190 192 193 187 159 310 285 212 171 199 143 174 178 164 163 155 174 168 185 156 163 170 182 186 190
356 352 346 340 336 334 332 323 317 317 321 322 324 294 243 189 152 335 63 175 176 181 173 183 306 311 311 279 170 132 107 72 58 263 167 146 172 203 163 166 169 176 185 198 198
353 350 347 342 335 332 331 319 316 316 316 323 345 329 234 178 216 222 191 161 161 162 185 226 310 285 231 19 105 108 81 169 200 126 235 155 251 212 174 171 182 180 192 188 198
348 347 345 341 334 331 332 322 323 319 304 293 305 324 262 223 221 162 219 206 244 252 225 261 285 238 188 96 51 330 195 230 278 200 134 171 230 207 192 185 185 189 194 202 205
343 341 341 339 332 331 334 333 330 304 305 304 272 301 252 347 279 217 204 230 260 266 247 225 201 82 48 93 196 193 208 223 234 181 190 223 235 160 184 187 199 194 207 198 204
340 337 336 335 327 327 333 339 355 14 310 269 275 269 285 313 238 171 188 228 232 158 166 25 81 220 217 172 153 147 246 247 231 169 151 221 240 219 175 200 218 201 195 185 190
341 336 333 333 325 325 314 53 55 334 295 289 269 265 263 259 277 228 198 198 165 176 120 20 241 238 230 178 183 230 252 254 319 161 152 199 251 233 172 208 212 212 199 187 186
345 339 333 332 326 321 304 27 339 335 255 294 248 232 233 215 225 246 199 206 163 153 165 167 235 106 185 256 205 232 217 203 207 137 206 91 312 257 212 208 213 226 215 197 190
340 339 336 334 324 326 322 293 335 320 43 275 227 221 211 210 242 227 200 189 192 203 177 226 268 224 215 250 139 266 237 213 149 121 205 144 263 282 207 223 204 216 218 213 198
329 330 330 331 312 309 274 291 337 155 343 188 193 160 181 175 206 207 203 189 170 196 120 249 292 247 191 226 156 241 241 179 157 148 100 7 32 270 112 245 223 220 216 216 209
323 327 320 321 304 301 253 260 46 42 257 289 184 170 123 206 231 135 168 179 217 171 224 240 257 205 215 219 170 150 70 41 55 72 334 225 166 282 205 219 246 221 221 220 221
320 321 316 303 295 283 279 210 57 164 323 241 214 152 175 185 229 164 172 177 175 111 284 315 248 269 198 134 40 76 64 18 29 13 228 186 106 244 272 265 244 215 208 212 215
322 321 314 303 275 246 195 65 185 235 258 308 10 108 185 169 218 185 130 199 219 114 106 164 308 184 182 168 177 175 146 152 177 204 248 54 226 265 295 321 358 265 199 201 213
321 324 331 333 223 186 171 128 205 208 327 347 326 158 228 278 200 153 193 203 203 164 171 159 267 305 202 159 134 186 106 195 100 9 49 261 296 330 346 9 36 72 177 204 217
330 330 351 338 163 163 102 224 241 249 337 353 355 8 107 24 293 183 189 210 205 191 161 194 301 265 88 95 47 150 163 75 11 155 257 304 271 225 317 3 359 347 322 227 216
336 344 15 106 133 162 157 232 274 313 356 345 341 308 249 289 214 222 223 223 204 162 147 138 119 310 46 74 181 3 111 53 115 134 160 150 266 213 198 230 307 333 357 11 236
350 4 111 133 43 23 166 209 311 338 310 267 216 222 231 282 271 230 208 235 178 143 154 180 148 139 179 285 316 137 134 121 135 240 135 160 259 269 207 188 138 128 42 52 114
340 308 183 245 296 339 310 300 277 309 274 264 283 241 258 251 298 233 195 182 152 128 163 182 8 64 349 7 8 67 64 124 121 90 192 139 251 315 313 161 172 142 123 130 133
343 355 341 81 87 51 340 274 331 320 291 335 260 322 338 268 205 272 233 108 142 103 118 104 115 145 181 192 163 298 355 63 116 119 169 215 208 206 255 231 195 135 146 160 161
347 323 33 310 319 326 260 272 298 353 333 7 359 42 332 288 285 195 235 74 27 101 62 102 127 155 158 157 191 189 267 200 177 181 156 223 183 195 208 214 227 184 177 173 190
359 356 342 298 299 349 326 319 309 347 282 286 360 324 308 250 340 316 167 141 174 15 78 26 130 107 103 232 168 217 121 95 86 123 99 124 95 188 225 212 229 220 198 191 191
318 301 303 294 331 15 242 11 306 292 265 241 331 317 299 250 315 286 267 274 168 149 137 121 135 105 227 340 92 5 237 119 125 86 141 157 223 165 218 228 232 231 236 245 228
Wind_Speed_850mb
23 23 22 22 20 19 17 17 17 17 18 18 17 16 15 14 18 21 22 13 20 15 4 14 16 14 9 11 12 13 8 13 14 19 3 30 22 34 13 41 31 13 45 65 61
25 24 24 23 22 20 18 18 19 18 19 20 21 19 17 15 16 22 11 18 19 18 12 11 20 14 9 15 8 8 5 17 14 14 7 1 10 2 17 36 15 35 46 63 67
25 24 24 24 24 23 20 19 19 19 21 22 23 21 18 15 6 4 5 21 20 19 13 14 17 7 8 13 12 9 9 8 12 13 0 4 13 10 45 11 49 67 69 69 70
28 27 27 27 26 25 23 21 19 19 21 23 22 21 16 7 7 7 8 12 19 18 15 13 10 8 8 11 16 1 21 12 10 25 10 6 5 5 30 21 55 60 64 71 72
31 31 30 29 29 27 25 24 22 21 22 23 20 17 11 5 2 1 5 15 21 21 18 18 10 6 3 9 14 7 6 19 9 30 30 30 6 4 8 39 53 63 68 71 69
34 33 33 32 31 29 25 24 21 22 22 22 18 11 6 4 4 7 5 12 22 22 21 22 4 10 15 10 17 13 18 13 13 22 23 17 6 5 10 38 59 69 74 70 66
38 37 36 36 35 32 28 25 22 22 21 17 12 5 10 6 6 3 7 8 14 18 18 12 8 12 12 4 20 35 9 9 7 1 11 24 3 8 21 48 54 65 65 65 69
40 40 40 39 38 35 28 24 22 23 14 8 7 6 8 8 11 9 7 8 14 13 10 4 12 19 8 2 15 6 8 4 7 5 9 17 10 10 27 36 45 51 55 57 64
39 39 39 40 39 34 26 22 21 16 9 8 7 7 9 13 23 9 14 7 3 10 13 10 10 7 1 10 8 4 5 8 6 24 5 12 10 17 34 32 33 47 48 47 63
42 41 40 38 39 32 22 19 20 11 9 12 14 12 6 5 13 22 20 11 13 12 11 10 3 5 6 7 11 12 8 6 10 11 8 13 17 9 37 38 40 41 41 47 64
45 44 42 39 37 29 9 11 17 5 23 29 42 35 46 20 9 22 20 22 18 5 8 2 6 13 21 12 6 4 6 13 14 15 12 22 12 15 32 35 35 33 32 51 63
47 47 45 41 40 24 8 9 14 23 25 38 41 47 44 35 10 25 27 16 10 8 8 11 11 21 5 8 7 10 11 9 4 16 10 8 25 5 21 28 40 43 40 44 61
47 49 46 40 35 14 11 6 19 34 9 25 19 27 26 27 25 33 35 28 7 6 8 11 13 8 9 9 8 9 9 13 14 9 4 9 13 12 10 26 24 37 42 42 59
47 50 50 45 20 19 12 4 22 12 8 13 8 12 26 14 9 47 44 29 4 17 11 11 12 10 11 14 10 15 16 23 14 12 9 12 9 12 11 16 18 43 54 54 44
50 51 52 45 39 28 14 16 16 2 7 5 9 9 21 23 6 23 49 38 17 13 9 14 11 8 12 23 16 19 12 22 17 14 6 1 5 13 5 12 24 42 51 67 59
50 55 52 47 40 19 9 8 2 10 12 7 17 12 13 12 7 9 20 21 8 9 5 15 14 9 17 10 16 12 13 18 11 7 4 11 13 11 8 12 10 36 51 64 66
54 55 53 48 41 21 14 2 9 7 10 5 10 8 14 13 5 11 13 12 10 8 6 7 9 8 8 8 8 14 14 5 4 4 13 5 8 16 11 12 15 25 55 61 65
58 61 51 44 34 22 13 8 7 7 12 11 8 6 16 14 12 15 11 8 8 9 4 9 11 12 5 10 15 4 15 11 9 7 9 3 5 10 12 22 18 6 29 47 54
58 59 35 29 16 31 23 6 16 12 8 14 15 9 6 4 8 7 16 12 15 20 15 11 11 8 11 10 16 7 4 7 15 2 5 3 6 12 15 17 23 12 16 35 53
59 55 28 15 23 39 8 9 8 3 10 8 5 8 4 3 2 12 16 11 13 23 13 10 5 6 3 11 9 13 15 8 7 5 6 6 3 8 6 10 14 17 8 20 40
44 21 22 22 26 15 8 12 9 12 22 12 5 8 6 3 10 12 18 16 13 10 17 11 8 10 6 5 11 4 3 13 10 9 10 2 10 11 12 7 2 14 19 14 28
20 6 11 18 8 3 6 9 9 12 39 12 9 18 12 5 11 12 22 14 28 27 20 10 11 7 7 3 6 5 6 8 10 11 3 6 10 8 13 13 14 4 8 17 10
30 10 7 18 0 5 11 9 5 7 7 7 8 8 10 10 7 11 11 3 32 12 18 15 5 6 12 13 9 11 2 9 9 7 10 12 10 3 10 9 17 18 9 11 14
13 7 7 5 14 3 6 8 8 19 13 18 14 3 10 9 19 12 6 5 8 13 24 18 7 13 12 12 7 1 5 6 10 6 9 10 8 7 4 8 7 17 16 14 13
9 3 5 6 4 5 5 5 5 9 13 23 9 12 11 10 7 14 4 7 14 10 8 9 8 9 5 5 4 5 5 3 10 10 10 8 16 10 15 14 11 11 16 21 16
10 9 14 14 16 8 5 3 6 6 4 8 4 30 19 12 10 12 8 4 10 5 8 8 2 4 2 2 4 3 3 14 8 9 10 10 1 8 11 14 16 18 17 20 23
7 8 9 11 8 4 5 4 12 15 15 20 11 18 24 12 39 54 59 33 31 21 9 10 13 7 3 5 7 5 6 8 7 4 10 7 13 11 13 22 24 19 12 11 15
Wind_Direction_850mb
5 2 0 358 357 356 356 355 353 351 349 345 337 325 310 292 275 265 255 223 195 181 160 155 156 143 132 144 126 112 87 185 198 220 67 354 128 166 162 137 151 208 168 166 157
1 359 357 353 351 348 345 344 344 344 346 344 339 331 321 311 284 270 236 205 187 180 172 163 145 152 182 160 146 95 144 202 204 163 129 272 16 95 127 150 104 123 157 164 167
358 355 352 349 346 342 338 335 335 335 338 339 335 331 326 324 325 69 202 196 187 199 189 177 170 182 208 174 176 145 195 189 228 188 154 339 33 331 153 179 159 155 167 172 177
355 352 349 346 344 340 334 327 325 327 329 332 330 329 326 320 147 100 73 168 194 203 196 179 196 171 209 183 191 209 239 234 229 199 176 147 5 335 175 178 174 169 165 175 183
355 350 346 343 342 339 333 324 320 323 326 329 327 326 327 269 220 42 322 188 197 205 191 177 179 197 222 190 163 221 163 184 263 170 166 161 227 181 97 156 173 169 174 182 186
356 349 344 341 339 337 333 322 315 318 324 324 321 316 285 280 121 358 287 196 190 192 193 187 159 310 285 212 171 199 143 174 178 164 163 155 174 168 185 156 163 170 182 186 190
356 352 346 340 336 334 332 323 317 317 321 322 324 294 243 189 152 335 63 175 176 181 173 183 306 311 311 279 170 132 107 72 58 263 167 146 172 203 163 166 169 176 185 198 198
353 350 347 342 335 332 331 319 316 316 316 323 345 329 234 178 216 222 191 161 161 162 185 226 310 285 231 19 105 108 81 169 200 126 235 155 251 212 174 171 182 180 192 188 198
348 347 345 341 334 331 332 322 323 319 304 293 305 324 262 223 221 162 219 206 244 252 225 261 285 238 188 96 51 330 195 230 278 200 134 171 230 207 192 185 185 189 194 202 205
343 341 341 339 332 331 334 333 330 304 305 304 272 301 252 347 279 217 204 230 260 266 247 225 201 82 48 93 196 193 208 223 234 181 190 223 235 160 184 187 199 194 207 198 204
340 337 336 335 327 327 333 339 355 14 310 269 275 269 285 313 238 171 188 228 232 158 166 25 81 220 217 172 153 147 246 247 231 169 151 221 240 219 175 200 218 201 195 185 190
341 336 333 333 325 325 314 53 55 334 295 289 269 265 263 259 277 228 198 198 165 176 120 20 241 238 230 178 183 230 252 254 319 161 152 199 251 233 172 208 212 212 199 187 186
345 339 333 332 326 321 304 27 339 335 255 294 248 232 233 215 225 246 199 206 163 153 165 167 235 106 185 256 205 232 217 203 207 137 206 91 312 257 212 208 213 226 215 197 190
340 339 336 334 324 326 322 293 335 320 43 275 227 221 211 210 242 227 200 189 192 203 177 226 268 224 215 250 139 266 237 213 149 121 205 144 263 282 207 223 204 216 218 213 198
329 330 330 331 312 309 274 291 337 155 343 188 193 160 181 175 206 207 203 189 170 196 120 249 292 247 191 226 156 241 241 179 157 148 100 7 32 270 112 245 223 220 216 216 209
323 327 320 321 304 301 253 260 46 42 257 289 184 170 123 206 231 135 168 179 217 171 224 240 257 205 215 219 170 150 70 41 55 72 334 225 166 282 205 219 246 221 221 220 221
320 321 316 303 295 283 279 210 57 164 323 241 214 152 175 185 229 164 172 177 175 111 284 315 248 269 198 134 40 76 64 18 29 13 228 186 106 244 272 265 244 215 208 212 215
322 321 314 303 275 246 195 65 185 235 258 308 10 108 185 169 218 185 130 199 219 114 106 164 308 184 182 168 177 175 146 152 177 204 248 54 226 265 295 321 358 265 199 201 213
321 324 331 333 223 186 171 128 205 208 327 347 326 158 228 278 200 153 193 203 203 164 171 159 267 305 202 159 134 186 106 195 100 9 49 261 296 330 346 9 36 72 177 204 217
330 330 351 338 163 163 102 224 241 249 337 353 355 8 107 24 293 183 189 210 205 191 161 194 301 265 88 95 47 150 163 75 11 155 257 304 271 225 317 3 359 347 322 227 216
336 344 15 106 133 162 157 232 274 313 356 345 341 308 249 289 214 222 223 223 204 162 147 138 119 310 46 74 181 3 111 53 115 134 160 150 266 213 198 230 307 333 357 11 236
350 4 111 133 43 23 166 209 311 338 310 267 216 222 231 282 271 230 208 235 178 143 154 180 148 139 179 285 316 137 134 121 135 240 135 160 259 269 207 188 138 128 42 52 114
340 308 183 245 296 339 310 300 277 309 274 264 283 241 258 251 298 233 195 182 152 128 163 182 8 64 349 7 8 67 64 124 121 90 192 139 251 315 313 161 172 142 123 130 133
343 355 341 81 87 51 340 274 331 320 291 335 260 322 338 268 205 272 233 108 142 103 118 104 115 145 181 192 163 298 355 63 116 119 169 215 208 206 255 231 195 135 146 160 161
347 323 33 310 319 326 260 272 298 353 333 7 359 42 332 288 285 195 235 74 27 101 62 102 127 155 158 157 191 189 267 200 177 181 156 223 183 195 208 214 227 184 177 173 190
359 356 342 298 299 349 326 319 309 347 282 286 360 324 308 250 340 316 167 141 174 15 78 26 130 107 103 232 168 217 121 95 86 123 99 124 95 188 225 212 229 220 198 191 191
318 301 303 294 331 15 242 11 306 292 265 241 331 317 299 250 315 286 267 274 168 149 137 121 135 105 227 340 92 5 237 119 125 86 141 157 223 165 218 228 232 231 236 245 228